This is the latest recevied weather packets stored in our database for station/object N7WSS. If no packets are shown the sender has not sent any weather packets the latest 10 day(s).
| Time | Temp. | Humidity | Pressure | Rain* | Wind** | Luminosity | Snow |
|---|---|---|---|---|---|---|---|
| 1778003003 | 20.56° C | 56% | 1011.2 hPa | 0 mm | - | - | - |
| 1778002699 | 19.44° C | 59% | 1010.8 hPa | 0 mm | - | - | - |
| 1778002395 | 19.44° C | 60% | 1010.8 hPa | 0 mm | - | - | - |
| 1778002093 | 19.44° C | 59% | 1011.2 hPa | 0 mm | - | - | - |
| 1778001790 | 20° C | 59% | 1011.2 hPa | 0 mm | - | - | - |
| 1778001485 | 20° C | 60% | 1010.9 hPa | 0 mm | - | - | - |
| 1778001181 | 20° C | 59% | 1011.1 hPa | 0 mm | - | - | - |
| 1778000878 | 19.44° C | 59% | 1011.1 hPa | 0 mm | - | - | - |
| 1778000576 | 18.89° C | 60% | 1010.9 hPa | 0 mm | - | - | - |
| 1778000276 | 19.44° C | 58% | 1010.8 hPa | 0 mm | - | - | - |
| 1777999972 | 18.89° C | 64% | 1010.9 hPa | 0 mm | - | - | - |
| 1777999668 | 18.33° C | 63% | 1011.1 hPa | 0 mm | - | - | - |
| 1777999365 | 18.33° C | 64% | 1011.2 hPa | 0 mm | - | - | - |
| 1777999063 | 18.33° C | 64% | 1011.2 hPa | 0 mm | - | - | - |
| 1777998761 | 17.78° C | 66% | 1011.2 hPa | 0 mm | - | - | - |
| 1777998458 | 17.78° C | 66% | 1010.9 hPa | 0 mm | - | - | - |
| 1777998155 | 17.78° C | 68% | 1011.1 hPa | 0 mm | - | - | - |
| 1777997852 | 18.33° C | 67% | 1011.2 hPa | 0 mm | - | - | - |
| 1777997550 | 18.33° C | 68% | 1010.8 hPa | 0 mm | - | - | - |
| 1777997247 | 17.78° C | 66% | 1010.9 hPa | 0 mm | - | - | - |
| 1777996945 | 17.78° C | 68% | 1011.1 hPa | 0 mm | - | - | - |
| 1777996641 | 17.78° C | 68% | 1010.7 hPa | 0 mm | - | - | - |
| 1777996337 | 17.78° C | 69% | 1010.9 hPa | 0 mm | - | - | - |
| 1777996034 | 17.22° C | 71% | 1011.1 hPa | 0 mm | - | - | - |
| 1777995729 | 17.22° C | 72% | 1011.1 hPa | 0 mm | - | - | - |
* Rain latest hour (hover to see other rain measurements)
** Current wind speed in m/s (hover to see current wind gust speed)